Zurück zum Katalog

SBS 6

AktivKommunikationGEO
NORAD 20872·PAYLOAD·🇺🇸 United States

Gestartet Oct 12, 1990 von Guiana Space Centre

Loading…

TLE

AktuellSource: Space-Track

Epoche: Sep 14, 2026, 10:45 UTC

1 20872U 90091A   26257.44792763  .00000042  00000-0  00000-0 0  9998
2 20872  12.7713  28.0932 0008172 155.7200 207.9980  0.98990773 46988

Verfolge SBS 6 in Echtzeit mit AllMySat

Download on the App Store